DL6AKI-13 Weather Reports


time (UTC)temp
C
wind
direction
speed
KPH
gust
KPH
rain 1hr
cm
rain 24hr
cm
rain mn
cm
humidity
%
barometer
mb
20190424161705 22 215 14.5 22.5 0.00 0.00 0.00 39 997.2
20190424161205 22 220 22.5 22.5 0.00 0.00 0.00 39 997.2
20190424160706 22 295 20.9 22.5 0.00 0.00 0.00 39 996.2
20190424160205 22 205 19.3 20.9 0.00 0.00 0.00 38 996.2
20190424155706 22 185 19.3 20.9 0.00 0.00 0.00 38 996.2
20190424155206 22 195 17.7 20.9 0.00 0.00 0.00 38 996.2
20190424154705 22 200 17.7 22.5 0.00 0.00 0.00 39 996.2
20190424154206 23 175 19.3 25.7 0.00 0.00 0.00 38 996.2
20190424153705 23 170 20.9 25.7 0.00 0.00 0.00 38 996.2
20190424153207 23 190 20.9 25.7 0.00 0.00 0.00 37 996.2
20190424152706 23 210 22.5 22.5 0.00 0.00 0.00 37 996.2
20190424152206 23 200 19.3 25.7 0.00 0.00 0.00 37 996.2
20190424151706 23 200 19.3 25.7 0.00 0.00 0.00 37 996.2
20190424151206 23 205 20.9 25.7 0.00 0.00 0.00 37 996.2
20190424150705 23 200 24.1 25.7 0.00 0.00 0.00 35 996.2
20190424150206 23 225 20.9 22.5 0.00 0.00 0.00 35 996.2
20190424145706 23 210 17.7 22.5 0.00 0.00 0.00 36 996.2
20190424145206 24 200 19.3 25.7 0.00 0.00 0.00 35 996.2
20190424144705 24 145 22.5 25.7 0.00 0.00 0.00 35 996.2
20190424144208 24 180 24.1 30.6 0.00 0.00 0.00 35 996.2
20190424143705 24 195 22.5 30.6 0.00 0.00 0.00 36 996.2
20190424143208 24 160 22.5 30.6 0.00 0.00 0.00 35 996.2
20190424142705 25 240 25.7 29.0 0.00 0.00 0.00 34 996.2
20190424142205 25 180 22.5 29.0 0.00 0.00 0.00 34 997.2
20190424141706 25 230 19.3 24.1 0.00 0.00 0.00 34 997.2
20190424141205 25 195 16.1 27.4 0.00 0.00 0.00 34 997.2
20190424140705 25 200 12.9 27.4 0.00 0.00 0.00 34 997.2
20190424140205 25 240 27.4 27.4 0.00 0.00 0.00 33 997.2
20190424135706 25 190 27.4 27.4 0.00 0.00 0.00 33 997.2
20190424135205 25 140 25.7 29.0 0.00 0.00 0.00 32 996.2
20190424134706 25 270 24.1 29.0 0.00 0.00 0.00 33 996.2
20190424134206 25 225 24.1 29.0 0.00 0.00 0.00 32 996.2
20190424133706 25 200 20.9 29.0 0.00 0.00 0.00 32 996.2
20190424133212 25 210 20.9 29.0 0.00 0.00 0.00 32 996.2
20190424132705 25 205 27.4 27.4 0.00 0.00 0.00 32 996.2
20190424132206 25 205 25.7 27.4 0.00 0.00 0.00 32 996.2
20190424131705 25 240 24.1 25.7 0.00 0.00 0.00 32 996.2
20190424131206 25 195 22.5 25.7 0.00 0.00 0.00 33 997.2
20190424130705 25 165 22.5 25.7 0.00 0.00 0.00 32 997.2
20190424130205 25 135 20.9 20.9 0.00 0.00 0.00 32 997.2
20190424125705 25 245 19.3 22.5 0.00 0.00 0.00 32 997.2
20190424125205 25 225 19.3 22.5 0.00 0.00 0.00 32 996.2
20190424124706 25 210 19.3 32.2 0.00 0.00 0.00 32 996.2
20190424124205 25 130 20.9 32.2 0.00 0.00 0.00 33 996.2
20190424123706 25 185 24.1 32.2 0.00 0.00 0.00 33 997.2
20190424123206 25 195 27.4 32.2 0.00 0.00 0.00 33 997.2
20190424122706 25 240 19.3 24.1 0.00 0.00 0.00 34 997.2
20190424122206 25 175 17.7 20.9 0.00 0.00 0.00 33 997.2
20190424121709 26 215 16.1 25.7 0.00 0.00 0.00 32 997.2
20190424121205 26 205 16.1 25.7 0.00 0.00 0.00 34 997.2
20190424120705 25 205 20.9 25.7 0.00 0.00 0.00 34 996.2
20190424120206 24 180 17.7 32.2 0.00 0.00 0.00 34 996.2
20190424115705 24 285 14.5 32.2 0.00 0.00 0.00 34 996.2
20190424114705 23 205 27.4 32.2 0.00 0.00 0.00 33 997.2
20190424114206 25 220 19.3 20.9 0.00 0.00 0.00 33 997.2
20190424113705 25 135 17.7 20.9 0.00 0.00 0.00 35 997.2
20190424113206 25 195 16.1 19.3 0.00 0.00 0.00 36 997.2
20190424112706 24 185 14.5 24.1 0.00 0.00 0.00 36 997.2
20190424112206 23 300 19.3 24.1 0.00 0.00 0.00 36 997.2
20190424111706 23 195 20.9 24.1 0.00 0.00 0.00 37 997.2
20190424111206 23 155 20.9 20.9 0.00 0.00 0.00 37 997.2
20190424110706 23 215 19.3 20.9 0.00 0.00 0.00 38 998.2
20190424110206 23 165 19.3 20.9 0.00 0.00 0.00 38 998.2
20190424105705 23 210 16.1 20.9 0.00 0.00 0.00 38 998.2
20190424105206 23 235 17.7 20.9 0.00 0.00 0.00 38 997.2
20190424104706 22 190 20.9 27.4 0.00 0.00 0.00 38 997.2
20190424104205 22 215 20.9 29.0 0.00 0.00 0.00 38 997.2
20190424103706 22 215 24.1 29.0 0.00 0.00 0.00 39 997.2
20190424103205 22 180 27.4 32.2 0.00 0.00 0.00 39 997.2
20190424102705 22 175 29.0 32.2 0.00 0.00 0.00 39 997.2
20190424102206 22 205 27.4 32.2 0.00 0.00 0.00 39 998.2
20190424101705 22 195 22.5 22.5 0.00 0.00 0.00 39 998.2
20190424101206 22 230 20.9 22.5 0.00 0.00 0.00 40 998.2
20190424100706 22 215 19.3 20.9 0.00 0.00 0.00 39 997.2
20190424100206 22 210 16.1 19.3 0.00 0.00 0.00 38 997.2
20190424095705 22 215 14.5 27.4 0.00 0.00 0.00 38 997.2
20190424095206 22 170 16.1 27.4 0.00 0.00 0.00 38 997.2
20190424094706 22 180 17.7 30.6 0.00 0.00 0.00 37 997.2
20190424094206 23 235 16.1 30.6 0.00 0.00 0.00 37 997.2
20190424093706 23 195 24.1 30.6 0.00 0.00 0.00 37 997.2
20190424093205 22 195 20.9 27.4 0.00 0.00 0.00 37 997.2
20190424092706 23 225 14.5 14.5 0.00 0.00 0.00 38 997.2
20190424092206 23 295 12.9 12.9 0.00 0.00 0.00 38 997.2
20190424091706 23 150 11.3 9.7 0.00 0.00 0.00 42 997.2
20190424091207 23 35 9.7 9.7 0.00 0.00 0.00 44 997.2
20190424090705 22 345 9.7 11.3 0.00 0.00 0.00 46 997.2
20190424090206 22 165 9.7 11.3 0.00 0.00 0.00 47 997.2
20190424085706 22 90 8.0 11.3 0.00 0.00 0.00 47 997.2
20190424085206 21 185 8.0 11.3 0.00 0.00 0.00 47 997.2
20190424084705 21 225 6.4 9.7 0.00 0.00 0.00 48 997.2
20190424084205 21 210 6.4 11.3 0.00 0.00 0.00 50 997.2
20190424083706 20 90 8.0 11.3 0.00 0.00 0.00 49 997.2
20190424083205 20 130 9.7 11.3 0.00 0.00 0.00 50 997.2
20190424082205 19 250 9.7 9.7 0.00 0.00 0.00 51 998.2
20190424081705 19 190 9.7 9.7 0.00 0.00 0.00 51 998.2
20190424081205 18 300 9.7 11.3 0.00 0.00 0.00 53 998.2
20190424080705 18 0 9.7 11.3 0.00 0.00 0.00 55 997.2
20190424080206 17 215 9.7 11.3 0.00 0.00 0.00 56 997.2
20190424075706 17 140 9.7 9.7 0.00 0.00 0.00 56 997.2
20190424075210 16 140 8.0 9.7 0.00 0.00 0.00 57 996.2
20190424074706 16 210 6.4 9.7 0.00 0.00 0.00 59 996.2
20190424074206 16 195 8.0 9.7 0.00 0.00 0.00 59 996.2
20190424073705 15 175 6.4 9.7 0.00 0.00 0.00 60 996.2
20190424073205 15 165 6.4 8.0 0.00 0.00 0.00 61 996.2
20190424072705 15 105 8.0 9.7 0.00 0.00 0.00 61 996.2
20190424072206 15 165 8.0 9.7 0.00 0.00 0.00 61 996.2
20190424071705 15 205 8.0 9.7 0.00 0.00 0.00 61 996.2
20190424071206 15 125 9.7 9.7 0.00 0.00 0.00 60 996.2
20190424070706 15 195 6.4 9.7 0.00 0.00 0.00 60 997.2
20190424070205 15 215 8.0 9.7 0.00 0.00 0.00 60 997.2
20190424065705 15 190 8.0 9.7 0.00 0.00 0.00 60 997.2
20190424065205 15 230 8.0 9.7 0.00 0.00 0.00 61 996.2
20190424064705 15 195 8.0 9.7 0.00 0.00 0.00 61 996.2
20190424064205 15 125 6.4 9.7 0.00 0.00 0.00 61 996.2
20190424063705 15 200 8.0 9.7 0.00 0.00 0.00 60 996.2
20190424063206 15 115 6.4 6.4 0.00 0.00 0.00 60 996.2
20190424062706 15 215 6.4 6.4 0.00 0.00 0.00 60 996.2
20190424062206 15 170 4.8 9.7 0.00 0.00 0.00 61 996.2
20190424061706 15 235 4.8 9.7 0.00 0.00 0.00 61 996.2
20190424061206 15 185 8.0 9.7 0.00 0.00 0.00 61 996.2
20190424060706 15 145 6.4 9.7 0.00 0.00 0.00 61 997.2
20190424060205 15 185 8.0 11.3 0.00 0.00 0.00 61 997.2
20190424055706 15 120 9.7 11.3 0.00 0.00 0.00 61 997.2
20190424055206 15 165 9.7 11.3 0.00 0.00 0.00 61 996.2
20190424054706 15 155 9.7 9.7 0.00 0.00 0.00 61 996.2
20190424054206 15 190 8.0 9.7 0.00 0.00 0.00 61 996.2
20190424053706 15 155 8.0 8.0 0.00 0.00 0.00 61 996.2
20190424053205 14 140 4.8 6.4 0.00 0.00 0.00 61 996.2
20190424052705 14 205 4.8 6.4 0.00 0.00 0.00 62 996.2
20190424052206 14 200 4.8 6.4 0.00 0.00 0.00 62 995.2
20190424051205 13 200 4.8 6.4 0.00 0.00 0.00 63 995.2
20190424050705 13 130 4.8 6.4 0.00 0.00 0.00 63 996.2
20190424050205 13 145 4.8 6.4 0.00 0.00 0.00 63 996.2
20190424045705 13 135 4.8 6.4 0.00 0.00 0.00 62 996.2
20190424045205 13 165 4.8 6.4 0.00 0.00 0.00 62 995.2
20190424044705 13 210 1.6 1.6 0.00 0.00 0.00 63 995.2
20190424044205 13 240 0.0 4.8 0.00 0.00 0.00 62 995.2
20190424043705 13 230 1.6 4.8 0.00 0.00 0.00 62 995.2
20190424043205 13 90 3.2 4.8 0.00 0.00 0.00 61 995.2
20190424042705 13 205 4.8 4.8 0.00 0.00 0.00 61 995.2
20190424042205 13 140 3.2 4.8 0.00 0.00 0.00 62 996.2
20190424041705 13 215 3.2 3.2 0.00 0.00 0.00 62 996.2
20190424041205 13 160 3.2 3.2 0.00 0.00 0.00 62 996.2
20190424040705 13 200 1.6 1.6 0.00 0.00 0.00 63 995.2
20190424040205 13 205 0.0 1.6 0.00 0.00 0.00 63 995.2
20190424035706 13 225 0.0 1.6 0.00 0.00 0.00 63 995.2
20190424035205 13 230 0.0 1.6 0.00 0.00 0.00 63 995.2
20190424034705 13 35 0.0 0.0 0.00 0.00 0.00 63 995.2
20190424034206 13 265 0.0 1.6 0.00 0.00 0.00 63 995.2
20190424033706 13 225 0.0 1.6 0.00 0.00 0.00 63 994.2
20190424033205 13 170 0.0 1.6 0.00 0.00 0.00 62 994.2
20190424032705 13 175 1.6 1.6 0.00 0.00 0.00 62 994.2
20190424032206 13 210 0.0 1.6 0.00 0.00 0.00 62 995.2
20190424031706 14 165 0.0 1.6 0.00 0.00 0.00 61 995.2
20190424031205 14 175 0.0 1.6 0.00 0.00 0.00 61 995.2
20190424030705 14 175 0.0 4.8 0.00 0.00 0.00 61 995.2
20190424030206 14 220 3.2 4.8 0.00 0.00 0.00 60 995.2
20190424025706 14 205 4.8 6.4 0.00 0.00 0.00 60 995.2
20190424025205 14 125 4.8 6.4 0.00 0.00 0.00 60 995.2
20190424024706 14 190 4.8 6.4 0.00 0.00 0.00 60 995.2
20190424024206 14 140 4.8 4.8 0.00 0.00 0.00 59 995.2
20190424023705 14 155 3.2 3.2 0.00 0.00 0.00 59 995.2
20190424023206 15 295 3.2 3.2 0.00 0.00 0.00 59 995.2
20190424022705 15 190 1.6 3.2 0.00 0.00 0.00 59 995.2
20190424022205 15 110 1.6 3.2 0.00 0.00 0.00 59 995.2
20190424021705 14 150 3.2 3.2 0.00 0.00 0.00 58 995.2
20190424021206 14 120 1.6 3.2 0.00 0.00 0.00 59 995.2
20190424020705 14 160 1.6 3.2 0.00 0.00 0.00 59 995.2
20190424020206 14 45 3.2 3.2 0.00 0.00 0.00 59 995.2
20190424015705 14 225 3.2 4.8 0.00 0.00 0.00 59 995.2
20190424015205 14 130 3.2 4.8 0.00 0.00 0.00 59 995.2
20190424014705 14 170 3.2 4.8 0.00 0.00 0.00 59 995.2
20190424014205 13 220 3.2 3.2 0.00 0.00 0.00 60 995.2
20190424013705 14 155 1.6 1.6 0.00 0.00 0.00 59 995.2
20190424013205 14 135 0.0 1.6 0.00 0.00 0.00 59 995.2
20190424012706 14 180 0.0 3.2 0.00 0.00 0.00 58 995.2
20190424012206 14 190 1.6 3.2 0.00 0.00 0.00 58 995.2
20190424011705 14 170 1.6 3.2 0.00 0.00 0.00 57 995.2
20190424011206 14 170 1.6 3.2 0.00 0.00 0.00 57 995.2
20190424010706 15 210 3.2 3.2 0.00 0.00 0.00 57 995.2
20190424010205 15 195 1.6 3.2 0.00 0.00 0.00 57 995.2
20190424005705 15 145 1.6 3.2 0.00 0.00 0.00 56 995.2
20190424005205 15 160 1.6 3.2 0.00 0.00 0.00 56 995.2
20190424004705 15 160 1.6 3.2 0.00 0.00 0.00 56 995.2
20190424004205 15 120 3.2 3.2 0.00 0.00 0.00 56 995.2
20190424003705 15 210 3.2 3.2 0.00 0.00 0.00 56 995.2
20190424003206 15 150 3.2 3.2 0.00 0.00 0.00 56 995.2
20190424002705 15 255 3.2 3.2 0.00 0.00 0.00 56 995.2
20190424002206 15 190 3.2 3.2 0.00 0.00 0.00 56 994.2
20190424001705 15 205 1.6 3.2 0.00 0.00 0.00 57 994.2
20190424001205 15 210 1.6 3.2 0.00 0.00 0.00 57 994.2
20190424000717 15 190 3.2 3.2 0.00 0.00 0.00 57 994.2
20190424000205 15 170 1.6 3.2 0.00 0.00 0.00 57 994.2
20190423235706 15 110 1.6 3.2 0.00 0.00 0.00 57 994.2
20190423235206 15 30 3.2 3.2 0.00 0.00 0.00 57 995.2
20190423234706 15 150 3.2 3.2 0.00 0.00 0.00 56 995.2
20190423234206 15 145 3.2 3.2 0.00 0.00 0.00 56 995.2
20190423233705 15 155 3.2 3.2 0.00 0.00 0.00 56 994.2
20190423233205 15 140 3.2 3.2 0.00 0.00 0.00 56 994.2
20190423232707 15 105 3.2 3.2 0.00 0.00 0.00 56 994.2
20190423232205 15 175 3.2 4.8 0.00 0.00 0.00 55 994.2
20190423231705 15 150 3.2 4.8 0.00 0.00 0.00 55 994.2
20190423231206 15 165 3.2 4.8 0.00 0.00 0.00 55 994.2
20190423230706 15 140 3.2 3.2 0.00 0.00 0.00 55 994.2
20190423230205 15 185 3.2 3.2 0.00 0.00 0.00 54 994.2
20190423225705 16 210 1.6 6.4 0.00 0.00 0.00 54 994.2
20190423225205 16 185 3.2 6.4 0.00 0.00 0.00 53 994.2
20190423224705 16 175 3.2 6.4 0.00 0.00 0.00 53 994.2
20190423224205 16 0.0 6.4 0.00 0.00 0.00 52 994.2
20190423223706 16 170 4.8 6.4 0.00 0.00 0.00 52 994.2
20190423223205 16 175 4.8 4.8 0.00 0.00 0.00 52 994.2
20190423222705 16 185 3.2 6.4 0.00 0.00 0.00 52 994.2
20190423222206 16 45 3.2 6.4 0.00 0.00 0.00 52 994.2
20190423221706 16 100 4.8 8.0 0.00 0.00 0.00 52 994.2
20190423221205 16 100 6.4 8.0 0.00 0.00 0.00 52 994.2
20190423220706 16 265 6.4 8.0 0.00 0.00 0.00 52 994.2
20190423220206 16 70 8.0 8.0 0.00 0.00 0.00 52 994.2
20190423215705 16 145 6.4 6.4 0.00 0.00 0.00 53 994.2
20190423215205 16 150 3.2 6.4 0.00 0.00 0.00 53 994.2
20190423214705 16 205 3.2 6.4 0.00 0.00 0.00 53 994.2
20190423214205 16 205 3.2 6.4 0.00 0.00 0.00 53 994.2
20190423213706 16 150 1.6 3.2 0.00 0.00 0.00 53 994.2
20190423213205 16 270 1.6 3.2 0.00 0.00 0.00 53 994.2
20190423212705 16 205 1.6 3.2 0.00 0.00 0.00 54 994.2
20190423212205 16 105 1.6 3.2 0.00 0.00 0.00 54 994.2
20190423211705 16 160 1.6 3.2 0.00 0.00 0.00 54 994.2
20190423211205 16 140 1.6 3.2 0.00 0.00 0.00 54 994.2
20190423210706 16 125 3.2 6.4 0.00 0.00 0.00 54 994.2
20190423210205 16 185 3.2 6.4 0.00 0.00 0.00 53 994.2
20190423205705 16 140 4.8 6.4 0.00 0.00 0.00 53 994.2
20190423205206 16 175 4.8 4.8 0.00 0.00 0.00 53 994.2
20190423204705 16 145 3.2 4.8 0.00 0.00 0.00 53 994.2
20190423204206 16 195 4.8 4.8 0.00 0.00 0.00 53 994.2
20190423203705 16 10 3.2 4.8 0.00 0.00 0.00 53 993.2
20190423203206 16 145 1.6 4.8 0.00 0.00 0.00 53 993.2
20190423202705 16 200 3.2 6.4 0.00 0.00 0.00 52 994.2
20190423202206 16 180 4.8 6.4 0.00 0.00 0.00 52 994.2
20190423201706 16 215 4.8 6.4 0.00 0.00 0.00 52 994.2
20190423201205 16 60 4.8 6.4 0.00 0.00 0.00 52 994.2
20190423200705 17 175 4.8 6.4 0.00 0.00 0.00 52 993.2
20190423200205 17 135 4.8 6.4 0.00 0.00 0.00 52 993.2
20190423195705 16 225 4.8 4.8 0.00 0.00 0.00 52 993.2
20190423195205 16 135 3.2 6.4 0.00 0.00 0.00 53 994.2
20190423194705 16 215 4.8 6.4 0.00 0.00 0.00 53 994.2
20190423194205 16 160 4.8 6.4 0.00 0.00 0.00 53 994.2
20190423193705 16 205 3.2 3.2 0.00 0.00 0.00 53 994.2
20190423193205 16 75 1.6 1.6 0.00 0.00 0.00 54 994.2
20190423192705 16 170 0.0 1.6 0.00 0.00 0.00 54 994.2
20190423192205 16 170 0.0 1.6 0.00 0.00 0.00 54 994.2
20190423191705 16 185 1.6 1.6 0.00 0.00 0.00 54 994.2
20190423191206 16 175 0.0 0.0 0.00 0.00 0.00 54 994.2
20190423190705 16 145 0.0 0.0 0.00 0.00 0.00 55 994.2
20190423190205 16 185 0.0 0.0 0.00 0.00 0.00 54 994.2
20190423185705 16 290 0.0 0.0 0.00 0.00 0.00 54 994.2
20190423185205 16 230 0.0 0.0 0.00 0.00 0.00 54 994.2
20190423184705 16 210 0.0 0.0 0.00 0.00 0.00 53 994.2
20190423184206 17 220 0.0 0.0 0.00 0.00 0.00 52 994.2
20190423183705 17 270 0.0 0.0 0.00 0.00 0.00 52 994.2
20190423183205 17 115 0.0 0.0 0.00 0.00 0.00 51 994.2
20190423182705 17 170 0.0 0.0 0.00 0.00 0.00 51 994.2
20190423182205 17 280 0.0 0.0 0.00 0.00 0.00 51 994.2
20190423181705 17 220 0.0 0.0 0.00 0.00 0.00 51 994.2
20190423181205 18 355 0.0 0.0 0.00 0.00 0.00 50 994.2
20190423180705 18 205 0.0 0.0 0.00 0.00 0.00 50 994.2
20190423180205 18 190 0.0 0.0 0.00 0.00 0.00 49 994.2
20190423175705 18 180 0.0 0.0 0.00 0.00 0.00 49 994.2
20190423175205 18 260 0.0 0.0 0.00 0.00 0.00 48 994.2
20190423174705 18 260 0.0 1.6 0.00 0.00 0.00 48 994.2
20190423174205 18 250 1.6 1.6 0.00 0.00 0.00 47 994.2
20190423173705 19 245 1.6 1.6 0.00 0.00 0.00 46 994.2
20190423173205 19 70 1.6 0.0 0.00 0.00 0.00 46 994.2
20190423172705 19 235 0.0 3.2 0.00 0.00 0.00 46 994.2
20190423172206 19 305 1.6 3.2 0.00 0.00 0.00 45 994.2
20190423171705 20 230 1.6 3.2 0.00 0.00 0.00 44 994.2
20190423171205 20 215 3.2 4.8 0.00 0.00 0.00 44 994.2
20190423170705 20 170 3.2 4.8 0.00 0.00 0.00 44 993.2
20190423170205 20 220 4.8 4.8 0.00 0.00 0.00 44 993.2
20190423165706 20 205 4.8 4.8 0.00 0.00 0.00 43 993.2
20190423165205 20 165 4.8 4.8 0.00 0.00 0.00 42 994.2
20190423164706 20 175 4.8 8.0 0.00 0.00 0.00 42 994.2
20190423164205 20 130 6.4 9.7 0.00 0.00 0.00 43 994.2
20190423163706 20 125 6.4 9.7 0.00 0.00 0.00 42 994.2
20190423163205 20 240 9.7 9.7 0.00 0.00 0.00 41 994.2
20190423162705 20 195 8.0 9.7 0.00 0.00 0.00 41 994.2
20190423162205 20 170 8.0 11.3 0.00 0.00 0.00 41 994.2